Starlink 3567

operational
NORAD ID: 51871 Int'l Des: 2022-022 Owner: SPXS Country: US Constellation: starlink
LEOCIRCULAR

About Starlink 3567

Description loading...

Live Position

Loading 3D Globe...

Upcoming Passes

Altitude History

Altitude vs Time

uPlot chart will show altitude changes over time

Two-Line Element Set

1 51871U 22022V 26036.75293041 .00001988 00000-0 14296-3 0 9999
2 51871 53.2176 152.4899 0001370 85.5250 274.5899 15.08842735218404
Epoch: Feb 5, 2026 • Age: 9 hours

Current Status

Altitude 546.9 km
Velocity 7.59 km/s
Sub-Earth Point -23.57°S, 56.64°W
Launch Date Mar 3, 2022
Age 3.9 years
Type internet

Technical Details

Classification Payload
Mass 297.00 kg
Dry Mass 275.00 kg
Total Mass 297.00 kg
Length 0.20 m
Diameter 2.80 m
Span 9.00 m
Shape Box + pan
Manufacturer SPXS
Bus Type Starlink
Phase Status In Orbit
Owner/State SPXS/US

Large Constellations

Loading constellations...